| time (UTC) | temp F | wind direction | speed MPH | gust MPH | rain 1hr in | rain 24hr in | rain mn in | humidity % | barometer mb |
| 20260906183032 | 66 | 5 | 2.0 | 8.0 | 0.00 | 0.01 | 0.01 | 72 | 1013.7 |
| 20260906181515 | 67 | 360 | 3.0 | 6.0 | 0.00 | 0.01 | 0.01 | 71 | 1013.7 |
| 20260906180018 | 69 | 105 | 2.0 | 6.0 | 0.00 | 0.01 | 0.01 | 70 | 1013.6 |
| 20260906174509 | 67 | 350 | 0.0 | 6.0 | 0.00 | 0.01 | 0.01 | 70 | 1013.7 |
| 20260906173010 | 68 | 21 | 1.0 | 5.0 | 0.00 | 0.01 | 0.01 | 70 | 1013.9 |
| 20260906171517 | 65 | 360 | 1.0 | 4.0 | 0.00 | 0.01 | 0.01 | 74 | 1014.1 |
| 20260906170009 | 65 | 346 | 1.0 | 4.0 | 0.00 | 0.01 | 0.01 | 75 | 1014.1 |
| 20260906164506 | 65 | 292 | 0.0 | 4.0 | 0.00 | 0.01 | 0.01 | 75 | 1014.2 |
| 20260906163010 | 64 | 64 | 0.0 | 9.0 | 0.00 | 0.01 | 0.01 | 76 | 1014.3 |
| 20260906161506 | 65 | 73 | 2.0 | 6.0 | 0.00 | 0.01 | 0.01 | 76 | 1014.2 |
| 20260906160004 | 64 | 350 | 2.0 | 8.0 | 0.00 | 0.01 | 0.01 | 77 | 1014.3 |
| 20260906154504 | 65 | 54 | 4.0 | 11.0 | 0.00 | 0.01 | 0.01 | 74 | 1014.4 |
| 20260906153004 | 68 | 347 | 1.0 | 8.0 | 0.00 | 0.01 | 0.01 | 71 | 1014.4 |
| 20260906151505 | 66 | 333 | 2.0 | 6.0 | 0.00 | 0.01 | 0.01 | 74 | 1014.3 |
| 20260906144606 | 64 | 336 | 2.0 | 5.0 | 0.00 | 0.01 | 0.01 | 79 | 1014.5 |
| 20260906143058 | 65 | 318 | 1.0 | 6.0 | 0.00 | 0.01 | 0.01 | 78 | 1014.5 |
| 20260906141556 | 64 | 18 | 1.0 | 10.0 | 0.00 | 0.01 | 0.01 | 80 | 1014.4 |
| 20260906140055 | 63 | 5 | 2.0 | 8.0 | 0.00 | 0.01 | 0.01 | 83 | 1014.5 |
| 20260906134556 | 62 | 339 | 1.0 | 4.0 | 0.00 | 0.01 | 0.01 | 84 | 1014.4 |
| 20260906133053 | 62 | 315 | 0.0 | 5.0 | 0.00 | 0.01 | 0.01 | 84 | 1014.5 |
| 20260906131552 | 62 | 15 | 0.0 | 4.0 | 0.00 | 0.01 | 0.01 | 85 | 1014.4 |
| 20260906130056 | 61 | 15 | 1.0 | 6.0 | 0.00 | 0.01 | 0.01 | 85 | 1014.3 |
| 20260906124545 | 61 | 22 | 0.0 | 4.0 | 0.00 | 0.01 | 0.01 | 87 | 1014.3 |
| 20260906123045 | 60 | 22 | 0.0 | 2.0 | 0.00 | 0.01 | 0.01 | 87 | 1014.3 |
| 20260906121545 | 60 | 22 | 0.0 | 2.0 | 0.00 | 0.01 | 0.01 | 86 | 1014.1 |
| 20260906120044 | 60 | 22 | 0.0 | 3.0 | 0.00 | 0.01 | 0.01 | 87 | 1014.1 |
| 20260906114551 | 60 | 31 | 0.0 | 2.0 | 0.00 | 0.01 | 0.01 | 88 | 1014.0 |
| 20260906113052 | 59 | 351 | 0.0 | 3.0 | 0.01 | 0.01 | 0.01 | 88 | 1013.8 |
| 20260906111539 | 59 | 351 | 0.0 | 1.0 | 0.01 | 0.01 | 0.01 | 88 | 1013.5 |
| 20260906110034 | 59 | 351 | 0.0 | 3.0 | 0.01 | 0.01 | 0.01 | 87 | 1013.3 |
| 20260906104532 | 59 | 350 | 0.0 | 3.0 | 0.01 | 0.01 | 0.01 | 87 | 1013.1 |
| 20260906103033 | 60 | 5 | 1.0 | 4.0 | 0.00 | 0.00 | 0.00 | 86 | 1013.1 |
| 20260906101530 | 60 | 38 | 1.0 | 6.0 | 0.00 | 0.00 | 0.00 | 86 | 1012.9 |
| 20260906100027 | 60 | 320 | 2.0 | 8.0 | 0.00 | 0.00 | 0.00 | 87 | 1012.8 |
| 20260906094525 | 60 | 320 | 0.0 | 4.0 | 0.00 | 0.00 | 0.00 | 88 | 1012.5 |
| 20260906093024 | 61 | 355 | 1.0 | 4.0 | 0.00 | 0.00 | 0.00 | 88 | 1012.4 |
| 20260906091532 | 60 | 17 | 1.0 | 5.0 | 0.00 | 0.00 | 0.00 | 89 | 1012.2 |
| 20260906090023 | 60 | 317 | 0.0 | 3.0 | 0.00 | 0.00 | 0.00 | 89 | 1012.1 |
| 20260906084521 | 60 | 5 | 0.0 | 0.0 | 0.00 | 0.00 | 0.00 | 89 | 1012.0 |
| 20260906083020 | 60 | 5 | 0.0 | 0.0 | 0.00 | 0.00 | 0.00 | 89 | 1012.0 |
| 20260906081532 | 60 | 9 | 0.0 | 0.0 | 0.00 | 0.00 | 0.00 | 89 | 1011.7 |
| 20260906080019 | 60 | 327 | 0.0 | 0.0 | 0.00 | 0.00 | 0.00 | 89 | 1011.6 |
| 20260906074521 | 60 | 327 | 0.0 | 0.0 | 0.00 | 0.00 | 0.00 | 89 | 1011.6 |
| 20260906073019 | 60 | 311 | 0.0 | 0.0 | 0.00 | 0.00 | 0.00 | 89 | 1011.8 |
| 20260906071516 | 60 | 5 | 0.0 | 0.0 | 0.00 | 0.00 | 0.00 | 88 | 1011.6 |
| 20260906070016 | 60 | 344 | 0.0 | 3.0 | 0.00 | 0.00 | 0.00 | 88 | 1011.6 |
| 20260906064515 | 60 | 53 | 0.0 | 1.0 | 0.00 | 0.00 | 0.00 | 88 | 1011.6 |
| 20260906063015 | 60 | 53 | 0.0 | 3.0 | 0.00 | 0.00 | 0.00 | 88 | 1011.5 |
| 20260906061514 | 60 | 58 | 0.0 | 1.0 | 0.00 | 0.00 | 0.00 | 87 | 1011.7 |
| 20260906060021 | 60 | 58 | 0.0 | 2.0 | 0.00 | 0.00 | 0.00 | 87 | 1011.6 |
| 20260906054510 | 60 | 61 | 0.0 | 1.0 | 0.00 | 0.00 | 0.00 | 87 | 1011.8 |
| 20260906053019 | 60 | 61 | 0.0 | 1.0 | 0.00 | 0.00 | 0.00 | 87 | 1011.9 |
| 20260906051514 | 61 | 67 | 0.0 | 1.0 | 0.00 | 0.00 | 0.00 | 87 | 1012.1 |
| 20260906050027 | 60 | 68 | 0.0 | 0.0 | 0.00 | 0.00 | 0.00 | 87 | 1012.1 |
| 20260906044509 | 61 | 68 | 0.0 | 1.0 | 0.00 | 0.00 | 0.00 | 86 | 1012.0 |
| 20260906043006 | 61 | 66 | 0.0 | 1.0 | 0.00 | 0.00 | 0.00 | 86 | 1011.9 |
| 20260906041505 | 60 | 66 | 0.0 | 1.0 | 0.00 | 0.00 | 0.00 | 87 | 1011.9 |
| 20260906040002 | 60 | 66 | 0.0 | 1.0 | 0.00 | 0.00 | 0.00 | 88 | 1011.8 |
| 20260906034502 | 59 | 65 | 0.0 | 0.0 | 0.00 | 0.00 | 0.00 | 87 | 1011.8 |
| 20260906033100 | 60 | 65 | 0.0 | 0.0 | 0.00 | 0.00 | 0.00 | 87 | 1011.6 |
| 20260906031604 | 60 | 65 | 0.0 | 0.0 | 0.00 | 0.00 | 0.00 | 86 | 1011.5 |
| 20260906030058 | 61 | 65 | 0.0 | 0.0 | 0.00 | 0.00 | 0.00 | 84 | 1011.5 |
| 20260906024558 | 62 | 65 | 0.0 | 0.0 | 0.00 | 0.00 | 0.00 | 83 | 1011.5 |
| 20260906023059 | 62 | 65 | 0.0 | 0.0 | 0.00 | 0.00 | 0.00 | 83 | 1011.7 |
| 20260906021556 | 62 | 65 | 0.0 | 2.0 | 0.00 | 0.00 | 0.00 | 83 | 1011.7 |
| 20260906014555 | 62 | 65 | 0.0 | 1.0 | 0.00 | 0.00 | 0.00 | 84 | 1011.7 |
| 20260906013054 | 62 | 65 | 0.0 | 0.0 | 0.00 | 0.00 | 0.00 | 83 | 1011.7 |
| 20260906011553 | 63 | 65 | 0.0 | 1.0 | 0.00 | 0.00 | 0.00 | 82 | 1011.5 |
| 20260906010052 | 63 | 65 | 0.0 | 2.0 | 0.00 | 0.00 | 0.00 | 81 | 1011.4 |
| 20260906004551 | 63 | 65 | 0.0 | 2.0 | 0.00 | 0.00 | 0.00 | 81 | 1011.3 |
| 20260906003050 | 63 | 65 | 0.0 | 0.0 | 0.00 | 0.00 | 0.00 | 82 | 1011.2 |
| 20260906001548 | 63 | 65 | 0.0 | 0.0 | 0.00 | 0.00 | 0.00 | 82 | 1011.1 |
| 20260906000047 | 63 | 65 | 0.0 | 2.0 | 0.00 | 0.00 | 0.00 | 81 | 1010.9 |
| 20260905234546 | 63 | 65 | 0.0 | 3.0 | 0.00 | 0.00 | 0.00 | 80 | 1010.8 |
| 20260905233048 | 64 | 75 | 0.0 | 5.0 | 0.00 | 0.00 | 0.00 | 79 | 1010.7 |
| 20260905231547 | 64 | 35 | 2.0 | 8.0 | 0.00 | 0.00 | 0.00 | 78 | 1010.8 |
| 20260905230049 | 65 | 75 | 1.0 | 6.0 | 0.00 | 0.00 | 0.00 | 79 | 1010.6 |
| 20260905224559 | 65 | 87 | 2.0 | 8.0 | 0.00 | 0.00 | 0.00 | 79 | 1010.7 |
| 20260905223042 | 66 | 59 | 2.0 | 7.0 | 0.00 | 0.00 | 0.00 | 78 | 1010.8 |
| 20260905221555 | 66 | 55 | 3.0 | 8.0 | 0.00 | 0.00 | 0.00 | 78 | 1010.7 |
| 20260905220041 | 67 | 17 | 1.0 | 9.0 | 0.00 | 0.00 | 0.00 | 76 | 1010.6 |
| 20260905214536 | 68 | 54 | 3.0 | 11.0 | 0.00 | 0.00 | 0.00 | 75 | 1010.1 |
| 20260905213035 | 68 | 15 | 2.0 | 8.0 | 0.00 | 0.00 | 0.00 | 75 | 1010.0 |
| 20260905211633 | 69 | 360 | 2.0 | 9.0 | 0.00 | 0.00 | 0.00 | 74 | 1009.7 |
| 20260905210030 | 69 | 49 | 1.0 | 9.0 | 0.00 | 0.00 | 0.00 | 75 | 1009.5 |
| 20260905204531 | 69 | 94 | 3.0 | 11.0 | 0.00 | 0.00 | 0.00 | 74 | 1009.4 |
| 20260905203033 | 71 | 360 | 3.0 | 10.0 | 0.00 | 0.00 | 0.00 | 73 | 1009.3 |
| 20260905201528 | 70 | 42 | 3.0 | 8.0 | 0.00 | 0.00 | 0.00 | 74 | 1009.3 |
| 20260905200027 | 71 | 54 | 4.0 | 13.0 | 0.00 | 0.00 | 0.00 | 73 | 1009.0 |
| 20260905194526 | 70 | 10 | 4.0 | 9.0 | 0.00 | 0.00 | 0.00 | 73 | 1009.0 |
| 20260905193028 | 71 | 53 | 3.0 | 9.0 | 0.00 | 0.00 | 0.00 | 72 | 1008.9 |
| 20260905191525 | 71 | 40 | 2.0 | 6.0 | 0.00 | 0.00 | 0.00 | 73 | 1008.9 |
| 20260905190025 | 71 | 350 | 3.0 | 9.0 | 0.00 | 0.00 | 0.00 | 73 | 1009.0 |
| 20260905184531 | 70 | 12 | 3.0 | 8.0 | 0.00 | 0.00 | 0.00 | 73 | 1009.1 |